TimeMST,TemperatureF,Dew PointF,Humidity,Sea Level PressureIn,VisibilityMPH,Wind Direction,Wind SpeedMPH,Gust SpeedMPH,PrecipitationIn,Events,Conditions,WindDirDegrees,DateUTC
12:56 AM,11.1,6.1,80,30.45,10.0,SE,4.6,-,N/A,,Overcast,140,2013-02-28 07:56:00
1:56 AM,12.0,7.2,81,30.42,10.0,Calm,Calm,-,N/A,,Overcast,0,2013-02-28 08:56:00
2:56 AM,15.1,10.0,80,30.40,10.0,SE,6.9,-,N/A,,Overcast,140,2013-02-28 09:56:00
3:56 AM,17.1,10.0,74,30.42,10.0,SSE,5.8,-,N/A,,Overcast,160,2013-02-28 10:56:00
4:56 AM,18.1,10.0,71,30.39,10.0,South,11.5,-,N/A,,Overcast,180,2013-02-28 11:56:00
5:56 AM,16.2,9.1,74,30.48,10.0,SSE,6.9,-,N/A,,Mostly Cloudy,150,2013-02-28 12:56:00
6:56 AM,14.0,8.1,77,30.50,10.0,West,3.5,-,N/A,,Overcast,280,2013-02-28 13:56:00
7:56 AM,17.1,12.0,81,30.49,2.5,South,5.8,-,0.00,Snow,Light Snow,190,2013-02-28 14:56:00
8:01 AM,17.6,12.2,79,30.32,1.2,South,6.9,-,0.00,Snow,Light Snow,190,2013-02-28 15:01:00
8:20 AM,17.6,14.0,86,30.33,2.0,South,6.9,-,0.00,Snow,Light Snow,170,2013-02-28 15:20:00
8:31 AM,17.6,14.0,86,30.32,5.0,South,9.2,-,0.00,Snow,Light Snow,170,2013-02-28 15:31:00
8:56 AM,18.1,14.0,84,30.49,10.0,South,6.9,-,0.00,,Overcast,180,2013-02-28 15:56:00
9:56 AM,20.1,15.1,81,30.48,10.0,South,8.1,-,N/A,,Overcast,170,2013-02-28 16:56:00
10:56 AM,23.0,16.2,75,30.53,10.0,SSE,6.9,-,N/A,,Overcast,160,2013-02-28 17:56:00
11:56 AM,24.1,15.1,69,30.51,6.0,SSW,9.2,-,0.00,,Overcast,200,2013-02-28 18:56:00
12:11 PM,24.8,17.6,74,30.36,4.0,South,10.4,-,0.00,,Mostly Cloudy,190,2013-02-28 19:11:00
12:18 PM,24.8,17.6,74,30.35,2.0,South,10.4,-,0.00,,Overcast,180,2013-02-28 19:18:00
12:28 PM,24.8,17.6,74,30.36,1.5,South,8.1,-,0.00,,Mostly Cloudy,190,2013-02-28 19:28:00
12:37 PM,24.8,17.6,74,30.35,1.2,South,9.2,-,0.00,,Overcast,180,2013-02-28 19:37:00
12:56 PM,24.1,19.0,81,30.48,2.0,South,8.1,-,0.00,,Overcast,180,2013-02-28 19:56:00
1:30 PM,24.8,19.4,80,30.35,1.8,South,8.1,-,0.00,Snow,Light Snow,170,2013-02-28 20:30:00
1:39 PM,24.8,19.4,80,30.34,2.0,South,8.1,-,0.00,,Overcast,190,2013-02-28 20:39:00
1:56 PM,25.2,20.1,81,30.46,3.0,South,6.9,-,0.00,Snow,Light Snow,190,2013-02-28 20:56:00
2:25 PM,24.8,19.4,80,30.36,10.0,South,5.8,-,0.00,,Overcast,190,2013-02-28 21:25:00
2:35 PM,24.8,19.4,80,30.37,10.0,South,4.6,-,0.00,,Overcast,190,2013-02-28 21:35:00
2:56 PM,25.2,19.0,78,30.47,1.8,Calm,Calm,-,0.00,Snow,Light Snow,0,2013-02-28 21:56:00
3:18 PM,24.8,19.4,80,30.37,1.8,Calm,Calm,-,0.00,Snow,Light Snow,0,2013-02-28 22:18:00
3:27 PM,24.8,21.2,86,30.38,2.0,Calm,Calm,-,0.00,Snow,Light Snow,0,2013-02-28 22:27:00
3:40 PM,26.6,21.2,80,30.37,5.0,Calm,Calm,-,0.00,Snow,Light Snow,0,2013-02-28 22:40:00
3:56 PM,27.1,22.1,81,30.46,2.5,Calm,Calm,-,0.00,Snow,Light Snow,0,2013-02-28 22:56:00
4:02 PM,26.6,21.2,80,30.38,3.0,SE,3.5,-,0.00,Snow,Light Snow,130,2013-02-28 23:02:00
4:12 PM,26.6,21.2,80,30.37,3.0,SE,4.6,-,0.00,Snow,Light Snow,130,2013-02-28 23:12:00
4:56 PM,25.2,21.0,84,30.45,10.0,South,5.8,-,0.00,,Mostly Cloudy,180,2013-02-28 23:56:00
5:24 PM,24.8,21.2,86,30.39,3.0,South,3.5,-,0.00,,Mostly Cloudy,180,2013-03-01 00:24:00
5:33 PM,24.8,21.2,86,30.38,3.0,South,3.5,-,0.00,,Overcast,170,2013-03-01 00:33:00
5:56 PM,25.2,21.0,84,30.48,2.5,SSE,4.6,-,0.00,Snow,Light Snow,160,2013-03-01 00:56:00
6:05 PM,24.8,21.2,86,30.38,5.0,South,4.6,-,0.00,Snow,Light Snow,180,2013-03-01 01:05:00
6:13 PM,24.8,21.2,86,30.39,8.0,South,3.5,-,0.00,Snow,Light Snow,170,2013-03-01 01:13:00
6:35 PM,24.8,21.2,86,30.39,6.0,SSE,4.6,-,0.00,,Mostly Cloudy,150,2013-03-01 01:35:00
6:56 PM,24.1,21.0,88,30.51,10.0,South,3.5,-,0.00,,Overcast,180,2013-03-01 01:56:00
7:37 PM,24.8,21.2,86,30.40,2.5,South,4.6,-,0.00,Snow,Light Snow,180,2013-03-01 02:37:00
7:46 PM,24.8,21.2,86,30.40,4.0,SSE,4.6,-,0.00,Snow,Light Snow,160,2013-03-01 02:46:00
7:56 PM,24.1,22.1,92,30.50,3.0,SSE,4.6,-,0.00,Snow,Light Snow,160,2013-03-01 02:56:00
8:05 PM,24.8,21.2,86,30.41,2.5,SSE,5.8,-,0.00,Snow,Light Snow,160,2013-03-01 03:05:00
8:21 PM,24.8,21.2,86,30.41,2.5,SSE,5.8,-,0.00,Snow,Light Snow,150,2013-03-01 03:21:00
8:37 PM,24.8,21.2,86,30.40,3.0,SSE,6.9,-,0.00,Snow,Light Snow,150,2013-03-01 03:37:00
8:56 PM,24.1,22.1,92,30.50,5.0,SSE,4.6,-,0.00,Snow,Light Snow,150,2013-03-01 03:56:00
9:27 PM,24.8,21.2,86,30.40,10.0,South,6.9,-,0.00,Snow,Light Snow,170,2013-03-01 04:27:00
9:37 PM,24.8,21.2,86,30.40,7.0,South,6.9,-,0.00,Snow,Light Snow,170,2013-03-01 04:37:00
9:56 PM,24.1,22.1,92,30.49,10.0,SSE,5.8,-,0.00,,Overcast,160,2013-03-01 04:56:00
10:01 PM,24.8,21.2,86,30.41,10.0,SSE,5.8,-,N/A,,Mostly Cloudy,150,2013-03-01 05:01:00
10:29 PM,24.8,21.2,86,30.41,10.0,ESE,4.6,-,N/A,,Overcast,120,2013-03-01 05:29:00
10:44 PM,24.8,21.2,86,30.41,10.0,South,5.8,-,N/A,,Overcast,190,2013-03-01 05:44:00
10:56 PM,24.1,22.1,92,30.48,10.0,South,4.6,-,N/A,,Overcast,190,2013-03-01 05:56:00
11:16 PM,24.8,21.2,86,30.42,10.0,South,5.8,-,N/A,,Mostly Cloudy,170,2013-03-01 06:16:00